Погода в Кировском

Россия / Саратовская область     51°33′30″N   47°13′08″E
темп.,
°C
ветер,
м/с
пор.,
м/с
влажн.,
%
обл.,
%
осадки,
мм/ч
давл.,
гПа
погр.,
м
13 мая, чт
чт1301:00+15всв33845 0.0 102043
04:00+14всв498794 0.0 1019157
07:00+15вюв61185100 2.9 1019340
10:00+20юв81266100 2.9 1018769
13:00+22ююв91154100 0.3 10181229
16:00+25ююв7114712 0.4 10181879
19:00+23ююв5115794 0.1 1017253
22:00+20ююз33730 0.1 101833
14 мая, пт
пт1401:00+18юв227776 0.0 101913
04:00+17юв347766 0.0 101951
07:00+18юв4867100 0.1 1020194
10:00+23ююв693981 0.1 1020519
13:00+27ю7935100 0.0 10201003
16:00+28ююв79310 0.0 10201331
19:00+26ююв611380 0.0 1019292
22:00+21юв615495 0.0 1019247
15 мая, сб
сб1501:00+19ююв51349100 0.0 1019212
04:00+17ююв41046100 0.0 1020148
07:00+18ююв410485 0.0 1020195
10:00+25ююв610303 0.0 1020511
13:00+29ююв810245 0.0 10191443
16:00+30ююв79244 0.0 10182572
19:00+26ююв49390 0.0 1018197
22:00+21юв410510 0.0 1018152
16 мая, вс
вс1601:00+19ююв410515 0.0 1018138
04:00+18ююв48525 0.0 101798
07:00+19ююв49535 0.0 1018185
10:00+26ю573424 0.0 1017491
13:00+30ю69265 0.0 10172084
16:00+31ю67235 0.0 10163411
19:00+28юв333548 0.0 101532
22:00+23юв454011 0.0 101552
17 мая, пн
пн1701:00+23вюв3645100 0.0 101598
04:00+19ююв465156 0.0 101580
07:00+21вюв23507 0.0 101684
10:00+28юв462924 0.0 1016539
13:00+31юв67195 0.0 10153357
16:00+31ююв56194 0.0 10143393
19:00+27юв37340 0.0 1015136
22:00+22вюв45340 0.0 101554